Location: Sevilla
(37.3933°N, 5.9839°W)
Time: 06:02:23
(UTC+02:00)

Transit 2A Rocket - Pass Details

Date: 30 June 2024
Orbit: 582 x 910 km, 66.7° (Epoch: 15 July)

Event Time Altitude Azimuth Distance (km) Brightness Sun altitude
Rises 22:16:39 0° 269° (W) 3,191 9.2 -5.5°
Reaches altitude 10° 22:20:56 10° 303° (WNW) 2,362 9.4 -6.2°
Maximum altitude 22:22:37 11° 321° (NW) 2,301 9.0 -6.5°
Drops below altitude 10° 22:24:22 10° 339° (NNW) 2,431 8.6 -6.8°
Sets 22:29:00 0° 12° (NNE) 3,449 8.7 -7.5°
